St. Louis, MO

4:42 PM CDT on April 27, 2017 (GMT -0500)
Lambert-Saint Louis International

Weather History for KSTL - October, 2014

Change the Weather History Date:

Saturday, October 4, 2014

  Actual Average Record
Temperature  
Mean Temperature 50 °F 63 °F  
Max Temperature 58 °F 73 °F 92 °F (1951)
Min Temperature 42 °F 53 °F 36 °F (1935)
Degree Days  
Heating Degree Days 15 5  
Month to date heating degree days 24 17  
Since 1 July heating degree days 63 58  
Cooling Degree Days 0 2  
Month to date cooling degree days 17 11  
Year to date cooling degree days 1715 1612  
Moisture  
Dew Point 33 °F    
Average Humidity 53    
Maximum Humidity 70    
Minimum Humidity 36    
Precipitation  
Precipitation 0.00 in 0.11 in 1.51 in (1991)
Month to date precipitation 1.81 0.42  
Year to date precipitation 34.98 31.30  
Snow  
Snow 0.00 in 0.00 in 0.00 in (2015)
Month to date snowfall 0.0 0.0  
Since 1 July snowfall 0.0 0.0  
Since 1 September snowfall 0.0 0.0  
Snow Depth 0.00 in    
Sea Level Pressure  
Sea Level Pressure 29.96 in    
Wind  
Wind Speed 11 mph (West)    
Max Wind Speed 28 mph    
Max Gust Speed 35 mph    
Visibility 10 miles    
Events      
T = Trace of Precipitation, MM = Missing Value Source: NWS Daily Summary

Daily Weather History Graph

Daily Weather History Graph

Search for Another Location

Airport or City:

Trip Planner

Search our weather history database for the weather conditions in past years. The results will help you decide how hot, cold, wet, or windy it might be!

Date:

Astronomy

Oct. 04, 2014 Rise Set
Actual Time 7:00 AM CDT 6:39 PM CDT
Civil Twilight 6:33 AM CDT 7:06 PM CDT
Nautical Twilight 6:02 AM CDT 7:36 PM CDT
Astronomical Twilight 5:31 AM CDT 8:07 PM CDT
Moon 4:14 PM CDT (10/4) 2:30 AM CDT (10/4)
Length of Visible Light 12h 32m
Length of Day
11h 39m
Waxing Gibbous, 81% of the Moon is Illuminated
Oct 4
Waxing Gibbous
Oct 8
Full
Oct 15
Last Quarter
Oct 23
New
Oct 30
First Quarter

Hourly Weather History & Observations

Time (CDT) Temp. Windchill Dew Point Humidity Pressure Visibility Wind Dir Wind Speed Gust Speed Precip Events Conditions
12:51 AM 46.0 °F 41.9 °F 36.0 °F 68% 30.00 in 10.0 mi West 8.1 mph - N/A   Scattered Clouds
1:51 AM 46.9 °F - 35.1 °F 63% 29.99 in 10.0 mi West 10.4 mph - N/A   Mostly Cloudy
2:51 AM 45.0 °F 40.6 °F 35.1 °F 68% 29.99 in 10.0 mi WSW 8.1 mph - N/A   Scattered Clouds
3:51 AM 44.1 °F 39.5 °F 36.0 °F 73% 29.97 in 10.0 mi WSW 8.1 mph - N/A   Partly Cloudy
4:51 AM 44.1 °F 38.6 °F 36.0 °F 73% 29.95 in 10.0 mi WSW 10.4 mph - N/A   Scattered Clouds
5:51 AM 44.1 °F 39.0 °F 35.1 °F 71% 29.97 in 10.0 mi West 9.2 mph - N/A   Partly Cloudy
6:51 AM 42.1 °F 35.2 °F 34.0 °F 73% 29.98 in 10.0 mi WNW 12.7 mph - N/A   Scattered Clouds
7:51 AM 43.0 °F 36.0 °F 32.0 °F 65% 29.98 in 10.0 mi West 13.8 mph - N/A   Scattered Clouds
8:51 AM 45.0 °F 37.6 °F 28.9 °F 53% 29.99 in 10.0 mi West 17.3 mph 26.5 mph N/A   Scattered Clouds
9:51 AM 48.0 °F - 28.9 °F 48% 29.99 in 10.0 mi West 21.9 mph 28.8 mph N/A   Scattered Clouds
10:51 AM 48.9 °F - 28.0 °F 44% 29.99 in 10.0 mi WNW 23.0 mph 32.2 mph N/A   Scattered Clouds
11:51 AM 52.0 °F - 30.0 °F 43% 29.99 in 10.0 mi West 17.3 mph 27.6 mph N/A   Mostly Cloudy
12:51 PM 53.1 °F - 30.9 °F 43% 29.98 in 10.0 mi West 20.7 mph 31.1 mph N/A   Mostly Cloudy
1:51 PM 54.0 °F - 30.9 °F 41% 29.96 in 10.0 mi WNW 20.7 mph 29.9 mph N/A   Scattered Clouds
2:51 PM 55.9 °F - 30.9 °F 39% 29.95 in 10.0 mi WNW 10.4 mph 23.0 mph N/A   Scattered Clouds
3:51 PM 57.0 °F - 30.0 °F 36% 29.93 in 10.0 mi WNW 20.7 mph 26.5 mph N/A   Scattered Clouds
4:51 PM 55.9 °F - 30.0 °F 37% 29.95 in 10.0 mi WNW 11.5 mph 20.7 mph N/A   Scattered Clouds
5:51 PM 54.0 °F - 30.0 °F 40% 29.94 in 10.0 mi WNW 12.7 mph 18.4 mph N/A   Scattered Clouds
6:51 PM 52.0 °F - 30.0 °F 43% 29.94 in 10.0 mi West 10.4 mph - N/A   Partly Cloudy
7:51 PM 50.0 °F - 32.0 °F 50% 29.94 in 10.0 mi West 6.9 mph - N/A   Partly Cloudy
8:51 PM 48.0 °F - 33.1 °F 56% 29.94 in 10.0 mi West 4.6 mph - N/A   Partly Cloudy
9:51 PM 46.9 °F - 35.1 °F 63% 29.94 in 10.0 mi Calm Calm - N/A   Partly Cloudy
10:51 PM 45.0 °F - 36.0 °F 71% 29.93 in 10.0 mi Calm Calm - N/A   Partly Cloudy
11:51 PM 45.0 °F - 35.1 °F 68% 29.91 in 10.0 mi Calm Calm - N/A   Clear